Regional Weather Roundup
Issued by NWS

Home | Current Version | Previous Version | Graphics & Text | Print | Product List | Glossary On
Versions: 1 2 3 4 5 6 7 8 9 10 11 12 13 14 15 16 17 18 19 20 21 22 23 24 25 26 27 28 29 30 31 32 33 34 35 36 37 38 39 40 41 42 43 44 45 46 47 48 49 50
000
ASUS43 KTOP 011059
RWRKS

WEATHER ROUNDUP FOR KANSAS
NATIONAL WEATHER SERVICE GOODLAND KS
600 AM CDT SAT AUG 01 2015

NOTE:  "FAIR" INDICATES FEW OR NO CLOUDS BELOW 12,000 FEET WITH NO
SIGNIFICANT WEATHER AND/OR OBSTRUCTIONS TO VISIBILITY.

KSZ001>006-013>018-027>032-041>047-011200-
NORTHWEST KANSAS

CITY           SKY/WX    TMP DP  RH WIND       PRES   REMARKS
GOODLAND       CLEAR     67  60  78 SW10      30.16F
HAYS           CLEAR     66  61  82 SW7       30.10F
HILL CITY      CLEAR     69  66  90 NW6       30.10F
RUSSELL        CLEAR     69  68  96 SW7       30.07F
$$

KSZ061>065-074>080-084>089-011200-
SOUTHWEST KANSAS

CITY           SKY/WX    TMP DP  RH WIND       PRES   REMARKS
DODGE CITY     CLEAR     65  64  97 CALM      30.13F FOG
ELKHART          N/A     66  63  90 S3          N/A
GARDEN CITY    CLEAR     68  66  93 CALM      30.12F FOG
GREAT BEND     CLEAR     70  64  83 W3        30.09F
LIBERAL        MOCLDY    70  64  83 SE3       30.12F
$$

KSZ066>073-081>083-090>101-011200-
SOUTHEAST KANSAS

CITY           SKY/WX    TMP DP  RH WIND       PRES   REMARKS
CHANUTE        CLEAR     66  66 100 S5        30.08S FOG
COFFEYVILLE    CLEAR     65  65 100 CALM      30.08R FOG
HUTCHINSON     FOG       69  67  93 CALM      30.09S VSB 1/2
MEDICINE LODGE   N/A     70  69  97 CALM      30.08S
NEWTON         CLEAR     70  64  83 S6        30.11S
PARSONS        CLEAR     66  66 100 CALM      30.09S
WICHITA INTL   PTCLDY    73  71  93 CALM      30.08S
WICHITA JABRA  CLEAR     72  70  93 CALM      30.08F FOG
WINFIELD       CLEAR     73  72  96 NE3       30.09S
$$

KSZ007>012-019>026-033>040-048>060-102>105-011200-
NORTHEAST KANSAS

CITY           SKY/WX    TMP DP  RH WIND       PRES   REMARKS
CONCORDIA      MOCLDY    71  68  90 SW8       30.06F
EMPORIA        CLEAR     69  69 100 SW5       30.07S FOG
LAWRENCE       CLEAR     68  66  93 CALM      30.05S
MANHATTAN      CLEAR     71  69  93 CALM      30.05S
OLATHE IND     CLEAR     72  70  93 S3        30.07S
OLATHE EXE     CLEAR     69  67  93 S3        30.06S
SALINA         CLEAR     71  67  87 CALM      30.06F
TOPEKA BILLARD CLEAR     72  68  87 CALM      30.05S
TOPEKA FORBES  CLEAR     71  67  87 CALM      30.06R
$$


USA.gov is the U.S. government's official web portal to all federal, state and local government web resources and services.